Powrót do katalogu

COSMOS 886 DEB

AktywnyLEO
NORAD 9961·DEBRIS·🇷🇺 Russia

Wystrzelony Dec 27, 1976 z Baikonur Cosmodrome

Loading…

Następne Przeloty (najbliższe 24 godziny)

TLE

ŚwieżeSource: Space-Track

Epoka: Sep 14, 2026, 14:23 UTC

1 09961U 76126BB  26257.59949233  .00001431  00000-0  35115-3 0  9990
2 09961  65.7957 340.8493 0532067  17.3068 344.5387 13.94148762413080

Śledź COSMOS 886 DEB w czasie rzeczywistym z AllMySat

Download on the App Store